Find Starlink 3832

NORAD ID: 52646 Int'l Des: 2022-052 Owner: SPXS Country: US Constellation: starlink operational
LEOCIRCULAR

Live-Position

3D-Globus wird geladen...

Über Starlink 3832

Beschreibung wird geladen...

Nächste Überflüge

Passes for default location (London). Set your location on the main map for personalized predictions.

Höhenverlauf

Loading altitude history...

Zweizeiliger Elementsatz

1 52646U 22052BA 26105.68950852 .00002755 00000-0 19102-3 0 9996
2 52646 53.2173 93.0605 0001278 79.5722 280.5414 15.08861244216720
Epoch: 15. Apr. 2026 • Age: 10 hours

Aktueller Status

Höhe 540.2 km
Geschwindigkeit 7.59 km/s
Subsatellitenpunkt 1.42°N, 143.33°W
Startdatum 14. Mai 2022
Alter 3.9 years
Typ internet

Technische Details

Klassifizierung Payload
Masse 297.00 kg
Trockenmasse 275.00 kg
Gesamtmasse 297.00 kg
Länge 0.20 m
Durchmesser 2.80 m
Spannweite 9.00 m
Form Box + pan
Hersteller SPXS
Bus-Typ Starlink
Phasenstatus In Orbit
Besitzer/Staat SPXS/US

Most Searched